GFSSGP_con_sbcape_231.txt.gz
CAPE
79 305 88 246 514 717 377 223 143 193 162 88 0 134 161 380 47 0 0 20 173 474 658 834 1812 2060 2054 2550 2807 2716 3298 3144 2850 2828 2517 2687 2585 2371 2405 1948 1828 1782 1762 1889 1987 2057 2357 2870 2249
78 524 374 74 587 469 400 413 186 270 311 232 230 197 159 605 51 0 15 54 263 546 658 938 1940 2238 1975 2433 2448 2710 2658 2310 2665 3091 2845 2794 2545 2408 2238 1950 1836 1781 1804 1830 1775 1742 1990 2267 2687
115 748 526 392 393 488 471 403 374 301 217 172 227 86 68 268 0 0 67 178 366 751 779 1371 1887 2404 1818 2041 2519 2699 2689 2209 1347 1294 981 2304 2275 2310 2204 2025 1951 1796 1730 1704 1673 1701 1740 1638 1676
367 432 231 675 472 388 403 477 368 257 293 203 102 323 55 25 1 43 61 337 481 761 835 1468 1828 1800 1792 1727 2142 1896 1790 1373 683 422 343 1340 1738 2002 1985 1909 1958 1855 1908 1932 1896 1872 1755 1523 1501
282 142 686 409 195 319 563 637 354 330 563 555 349 286 48 315 117 73 111 391 569 624 1158 1336 2403 2364 2286 1950 1959 2198 1549 1503 820 789 231 382 728 1397 1822 1758 1704 1812 1941 1966 1861 1822 1724 1621 1562
297 141 360 310 404 506 419 799 393 513 517 571 315 92 311 478 272 68 126 326 679 777 1174 1182 1889 2078 2311 2065 1963 2206 2160 1524 951 528 285 292 350 786 1286 1746 1882 1944 1981 1817 1662 1823 1848 1622 1540
383 377 294 415 607 825 825 767 704 506 474 450 473 723 576 537 206 101 99 149 633 903 1119 1031 1112 1344 1503 1952 1851 1911 1896 1613 1141 383 618 418 280 250 939 981 1624 1603 1375 1405 1567 1591 1737 1769 1667
207 246 254 225 356 410 880 896 678 494 583 505 591 698 653 742 181 135 111 75 158 752 1142 1159 1298 1314 1690 1299 2033 1901 1683 1110 1005 689 269 957 27 3 333 410 937 1150 1405 1369 1415 1493 1499 1712 1761
0 91 292 286 331 293 1185 994 804 822 633 465 732 613 592 555 170 130 184 303 340 620 964 1098 1158 1454 1440 1939 1577 2268 1688 1461 1051 812 460 484 0 0 0 108 1095 1213 1138 1190 1241 1589 1684 1658 1787
0 51 91 86 349 563 1174 946 1143 1009 909 992 526 637 741 421 270 206 261 316 386 749 1012 1043 1078 1157 1581 1144 1737 2032 1957 1022 1032 1321 1006 1063 78 7 0 38 426 1048 981 778 950 1761 1641 1727 1527
1 0 5 43 186 484 1070 751 1198 1103 821 784 963 822 825 517 415 275 313 335 433 861 1216 1166 1520 1581 1690 1698 1715 1755 1592 1958 1577 1301 1304 586 484 678 826 946 401 437 707 920 548 1617 1552 1571 1920
0 0 3 20 397 789 1028 1024 948 1055 552 739 1005 880 892 821 807 565 442 473 606 950 1195 1419 1723 1961 2169 1997 1897 1718 1674 2206 2262 1606 1349 1650 752 717 928 1356 366 628 468 709 642 1481 1679 1731 2115
0 0 0 25 216 556 827 1028 929 959 955 910 849 837 958 965 952 875 685 637 849 1106 1206 1456 1889 2173 2267 2404 2108 1853 1743 1851 2084 1600 1642 1584 1022 989 745 722 696 674 771 637 1441 1495 1298 1496 1282
0 0 0 0 41 72 267 545 813 767 899 1004 935 944 1060 1070 1056 1112 1111 1211 1140 1177 1303 1381 1685 2082 2204 2221 2221 1833 1924 1778 1804 1647 1352 1295 1234 1082 832 1181 899 696 620 744 1263 1486 1412 1501 1604
0 0 0 0 14 42 145 190 339 724 929 1146 1111 1088 1136 1191 1193 1276 1326 1388 1381 1398 1392 1390 1618 1885 2098 2046 2062 1937 1958 2113 1920 2030 1476 1261 1248 1067 1122 1003 503 1071 1091 1421 1482 1538 1660 1647 1531
0 0 0 0 0 0 45 14 48 332 1026 1205 1223 1171 1157 1317 1344 1406 1385 1374 1398 1491 1485 1430 1356 1475 1820 1911 2047 2028 2111 1890 1077 685 1970 1535 1506 1118 1129 669 1095 1297 1366 1246 1399 1421 1487 1403 1444
0 0 0 0 0 0 0 0 0 68 931 1076 1202 1182 1227 1319 1389 1494 1430 1435 1448 1528 1547 1206 1348 1385 1699 2093 2190 2238 2030 2126 1807 831 1239 1491 1538 1432 1457 1051 1358 1452 1076 1331 1425 1172 1268 1114 1058
0 0 0 0 0 0 0 0 0 198 780 1108 980 938 1093 1281 1424 1420 1319 1306 1537 1573 1677 1552 1193 1714 1830 1915 2111 1833 1602 1826 1118 788 1008 1204 1627 1733 1130 1173 1630 772 1833 1250 1218 1300 1120 920 1011
0 0 0 0 0 0 0 0 0 0 377 604 995 926 722 839 1086 1314 1370 1290 1244 1561 1642 1872 1840 2057 1962 1860 1601 1541 1429 1979 847 429 978 1450 1880 1684 1309 755 1317 1260 1418 1183 1775 1592 1403 1398 809
0 0 0 0 0 0 0 0 0 0 0 255 776 959 968 833 599 641 1293 1390 837 1057 1636 1858 2103 2249 2057 1918 1819 1671 1721 1557 1518 1753 1698 1897 1648 1786 1650 568 1460 1619 1280 1740 1805 1787 1829 1899 1393
0 0 0 0 0 0 0 0 0 0 0 0 186 861 1039 1092 792 526 1080 1511 1303 1163 1665 1820 2214 2273 2201 2141 1954 1551 1433 1339 1409 1410 1511 1658 1722 1602 1370 984 669 1684 1856 1477 1730 1646 1720 1798 1703
0 0 0 0 0 0 0 0 0 0 0 0 0 76 581 1093 1171 865 895 1395 1480 1559 461 1460 2129 2217 2154 2142 1895 1937 2004 1967 1550 1902 1767 1756 1666 1694 1661 1764 1546 899 1183 1568 1552 1498 1656 1674 1787
0 0 0 0 0 0 0 0 0 156 283 323 6 233 54 105 580 1041 1111 1189 1515 1537 1112 1536 1810 1858 2044 2081 2157 2178 2102 1798 1707 1463 1615 1693 1724 1575 1586 1727 1688 1070 1167 1170 1161 1238 1754 1573 1748
0 0 0 0 0 0 0 0 0 380 312 534 629 804 639 123 290 720 1056 1214 1441 1562 1479 1326 1710 1799 2032 2022 2128 2135 2170 2044 1602 1561 1518 1377 1408 1420 1457 1596 1551 1517 1213 1032 910 1150 1616 1663 1317
0 0 0 0 0 0 0 0 0 259 571 676 798 856 456 359 681 920 1154 1332 1499 1589 1579 1524 1310 1731 1890 1924 2042 2118 2130 2080 1900 1923 1536 1369 1200 1233 1247 1395 750 253 884 1057 1067 1342 1618 1920 1888
0 0 0 0 0 0 0 0 4 431 627 940 839 690 716 756 1041 1153 1330 1535 1372 1496 1613 1447 1730 2029 1669 1674 1963 2148 2186 1983 1793 1835 1651 1532 1276 1111 1092 1193 862 156 510 927 1416 1368 2179 1788 1543
0 0 0 0 0 0 0 1 140 526 724 1071 1096 992 1049 1063 1148 1258 1379 1513 1037 1673 1725 1687 1756 1493 524 988 1946 1885 1862 1955 1886 2026 1785 1692 1639 1383 1243 657 443 561 669 682 1140 1909 1528 1598 1645
0 0 0 0 0 0 0 0 0 660 737 1140 1234 1189 1253 1283 1233 1315 1293 1089 1176 1246 1735 1798 1231 850 755 875 932 1566 1664 1982 1982 2111 1879 1725 1694 918 1025 206 148 700 554 786 1280 1372 1587 1225 960
0 0 0 0 0 0 0 0 0 196 751 798 834 1106 1305 1349 969 663 655 617 672 1376 1854 1817 1812 1707 1863 1921 1865 1808 1799 1309 1987 1938 1937 1775 1634 876 567 181 223 664 500 794 1712 1567 1417 1434 1533
0 0 0 0 0 0 0 0 0 605 490 322 820 1115 1470 1348 1079 578 427 451 654 640 606 475 924 2036 2224 2150 2165 2006 2055 1970 992 836 1027 1807 1729 1335 235 677 964 873 939 1437 1649 1727 854 1314 1243

GFSSGP_con_sbcape_234.txt.gz
CAPE
294 654 715 724 1461 450 569 499 558 563 544 433 161 351 461 676 523 591 199 215 801 680 723 828 2213 2619 2761 3074 2507 2584 2741 2487 2131 2190 2122 2219 2074 2180 2270 2142 2157 2104 2142 2200 2441 2922 2218 2179 2210
506 1267 1110 557 943 437 668 621 615 645 588 529 383 301 363 977 311 261 297 370 907 794 747 987 2234 2549 2746 2996 2587 2934 2262 2464 2381 2077 2213 2311 2161 2098 1926 1881 1815 1819 1789 1908 2051 2148 2550 2688 2257
406 1139 1434 655 548 600 652 668 650 544 482 383 347 98 272 673 237 264 339 531 936 889 958 1605 2369 2488 2437 2828 3108 3077 2649 2861 2002 1711 1640 1645 1574 1763 1968 1926 1841 1829 1793 1779 1816 1749 1764 2024 2430
558 1378 1066 803 578 743 687 729 650 547 550 302 281 321 278 382 273 427 308 542 1002 1020 1128 1697 2371 1843 2107 2584 2749 3002 1909 1456 766 398 737 552 741 936 1547 1905 1782 1793 1732 1668 1703 1653 1581 1534 1632
637 612 390 364 524 809 891 778 659 573 713 732 438 178 537 191 342 416 563 479 1010 1118 1330 1343 2533 2330 2426 2591 2527 1819 1149 835 468 157 178 358 475 578 934 1345 1718 1797 1887 1836 1740 1648 1663 1640 1422
655 603 137 144 196 541 836 919 620 670 640 710 92 330 779 536 412 453 707 639 580 951 1107 1322 2215 2495 2396 2221 1813 1953 1266 771 472 266 163 377 272 359 470 793 1336 1759 1878 1876 1508 1769 1669 1512 1518
510 243 181 159 329 473 977 908 766 761 645 778 455 963 843 614 368 495 679 656 711 788 1109 1374 1400 1944 1858 2516 2023 1686 1652 1037 454 347 321 204 159 81 480 514 969 1280 1492 1545 1475 1651 1744 1687 1602
271 94 0 23 116 585 1096 963 980 797 866 842 746 1072 767 738 336 511 554 690 744 719 886 1033 1084 1199 1500 1809 2189 1922 1746 1350 981 444 580 266 218 81 407 360 802 888 1200 1389 1457 1485 1453 1680 1693
155 0 0 13 8 97 1149 540 1018 1166 992 916 998 1017 904 523 348 429 406 426 661 764 755 711 880 977 756 1240 1847 2078 1829 1579 1308 733 631 394 89 12 39 155 403 821 1155 1223 1262 1469 1730 1731 1722
9 0 0 0 52 182 921 939 1001 1217 1167 1228 1130 1240 1022 424 437 402 365 346 448 719 884 786 911 1105 1300 1218 1383 2101 1923 812 855 950 823 768 429 0 0 1 62 566 1152 945 868 1251 2129 1575 1660
0 3 0 0 0 125 552 948 1089 1046 805 583 1023 1465 1076 521 445 388 409 489 492 820 1080 1110 1124 1335 1461 1327 2083 3009 2433 1597 1703 946 790 1093 540 15 43 15 0 353 937 582 773 894 1219 1461 1644
8 0 0 0 170 446 374 541 777 835 1046 944 1030 1542 1135 684 462 418 462 528 600 969 1159 1208 1595 1807 1853 1652 1626 1643 2628 2048 2082 1568 1015 877 1541 1268 1251 252 743 653 513 327 641 460 1413 1632 1433
0 0 0 12 30 227 430 556 617 749 1139 1237 1242 1513 1310 940 739 567 607 664 778 1084 1353 1473 1679 2010 1965 2092 1937 1504 2024 2625 1964 1913 1730 1286 903 1487 1571 886 1336 765 648 503 515 615 1438 1468 1037
0 0 0 0 0 73 195 127 825 670 1264 1464 1359 1485 1480 1287 1158 1060 940 950 1017 1140 1351 1538 1789 2104 2213 2508 2205 1820 1498 1548 2440 1895 1687 1559 1120 1262 1112 1441 1718 1274 957 759 213 1366 907 847 767
0 0 0 0 0 28 104 90 367 538 1291 1480 1485 1416 1475 1453 1395 1511 1447 1456 1385 1460 1409 1612 1851 1991 2294 2313 2164 1982 1467 1202 2321 2373 1529 1468 1363 1556 1510 1146 1435 730 557 732 1224 1150 980 899 929
0 0 3 0 0 25 39 19 14 289 936 1193 1493 1499 1460 1566 1557 1627 1753 1727 1801 1779 1843 1857 1684 1736 2150 2168 2184 1925 1728 1505 2061 1432 1596 1421 1579 1556 1561 1306 1515 2079 1140 1381 816 1010 1089 1372 1495
0 8 0 0 0 0 18 12 26 25 524 634 1342 1544 1498 1635 1651 1736 1637 1832 1857 2037 2137 2227 1924 1597 1992 2153 2206 2210 2049 2477 358 1290 638 1137 1590 1261 2142 1116 1748 1871 1994 1791 1754 1218 1092 1169 1167
0 1 0 0 0 0 0 0 0 8 279 343 715 1169 1580 1555 1558 1769 1718 1672 1937 2065 2233 1969 1534 1939 2141 2169 2445 2586 2501 2568 1478 960 1277 1088 1845 1558 1619 1493 1801 1369 2274 2335 1627 1664 1776 1511 1309
0 0 0 0 0 0 0 0 0 0 0 23 433 922 1184 1494 1569 1729 1692 995 1885 2074 2245 2489 2164 1228 2601 2294 2378 2362 3187 2667 1629 1477 898 1148 1406 1637 1324 908 1400 1409 2284 1480 1531 1593 1648 1521 1588
0 0 0 0 0 0 0 0 0 0 0 0 94 747 806 1194 1629 1841 1848 1779 1747 2181 2371 2605 2748 2843 2502 2462 2437 2325 2114 2634 2135 1497 1277 1151 1500 1527 2030 1048 1039 1732 3047 1865 1910 2013 1932 1525 1425
0 0 0 0 0 0 0 0 0 0 56 78 28 496 624 1097 1407 1737 2022 1991 1647 1340 1599 2550 2896 3038 3086 2745 2709 2702 2504 2630 2997 1658 1493 1444 1701 1665 1622 1973 1574 1489 2475 2783 2177 1835 1883 1404 1533
0 0 0 0 0 0 0 113 51 100 134 286 211 216 612 998 1448 1334 1650 2057 1847 1083 1104 2059 2669 3085 3134 3000 2988 2803 2977 2855 3614 3703 3257 2166 1955 2117 1371 1741 2020 1622 1359 1358 2537 1504 2008 1752 1733
0 0 0 0 0 0 0 28 100 214 247 519 663 787 706 275 1177 1442 1324 1847 2165 1398 1159 1138 2387 3004 2765 2858 3119 3367 2535 2497 3305 1728 1915 2141 1970 1967 1884 2108 2262 2160 2296 1358 1557 1362 1400 975 1606
0 0 0 0 0 18 0 0 174 368 784 784 933 1024 969 525 458 1163 1359 1505 2057 2147 2212 1463 2304 3073 2906 3002 3254 3340 3096 3306 2440 3407 2950 1864 1747 1908 2147 1940 1961 2602 1918 2158 1698 1579 1318 1232 1428
0 0 26 11 26 51 0 1 84 315 810 1107 1276 1210 1065 892 907 999 1354 1583 2052 2272 2304 2107 2652 2723 3073 3122 3175 3340 3436 3333 3009 3278 2176 1822 1599 1603 1724 2242 2193 2861 2421 1961 2046 1571 1576 1494 1855
0 4 34 22 27 32 0 10 314 441 849 1294 1349 1359 1260 1210 1366 1416 1595 1822 2141 2251 2470 2504 2638 3036 2911 3146 3238 3326 3473 3245 3014 2812 2363 1968 1685 1528 1695 1945 2075 2033 1711 1365 1396 2452 1337 1629 1660
0 1 0 3 1 3 17 2 3 425 546 1221 1493 1515 1622 1557 1638 1911 2075 2026 2046 2258 2506 2570 2699 2933 3033 2793 3116 3218 3374 3406 2905 2851 2728 2689 2238 2184 2059 1933 2024 1767 1711 1243 1057 1385 1226 1791 2128
0 0 16 32 48 35 32 4 10 213 635 1264 1349 1690 1810 1600 1787 1992 1752 1621 1560 1676 1979 2363 2581 2575 2841 2076 1817 1981 2364 2942 3130 3075 3217 2791 2625 2380 2466 2108 1886 1408 1340 1230 1581 1556 1528 2001 1912
1 12 6 10 14 27 11 19 74 249 785 1111 785 1303 1801 1893 1312 1107 894 915 1250 1673 1896 1911 2164 2333 2168 1928 2224 2399 2590 2623 2944 2454 1583 1596 2566 2636 2515 2293 1568 1085 1081 1420 1555 1470 1493 1823 1865
0 1 7 38 39 19 0 0 111 476 847 669 646 1171 1953 1975 1635 941 895 1120 1218 1163 1143 1074 1343 1646 1917 2595 2894 2861 3025 2839 2574 516 293 16 1935 2684 2604 2206 788 465 1187 1540 1493 1623 1888 1822 2021

GFSSGP_con_sbcape_237.txt.gz
CAPE
121 214 1482 1201 2208 1549 578 572 601 426 429 196 116 171 393 563 796 700 863 774 479 284 593 1094 2474 2582 2359 2422 1917 1832 1705 1612 2041 1909 1918 1956 1961 2111 2432 2398 2275 2369 2629 2855 2161 2087 1866 1856 1891
1071 1389 1813 1352 1608 836 617 700 488 638 596 495 86 223 667 959 440 510 855 965 589 532 216 327 2732 2870 2636 2687 2531 2387 1718 1845 2410 2220 2001 1777 1779 1751 1922 1926 1964 2021 2095 2139 2560 2689 2198 2449 1738
455 1412 2591 1478 1104 803 702 570 516 486 535 296 320 289 895 614 492 599 822 1008 615 526 616 1170 2919 3023 2721 2941 2815 2704 2483 1982 1787 1437 1415 937 631 806 1670 1830 1884 1887 1895 1893 1954 2109 2425 2467 2730
852 2133 1798 331 551 627 462 471 503 504 578 432 404 716 755 526 664 676 903 869 624 785 1284 1947 2748 2841 2981 2634 2945 2899 2426 2185 1859 1437 899 684 443 388 555 1331 1727 1653 1678 1775 1751 1631 1562 1706 2142
552 1165 786 584 807 496 318 446 426 509 497 305 522 843 661 638 752 647 963 1096 851 935 1349 1581 2554 2406 2493 2783 2577 2724 2009 2022 1113 687 375 557 494 427 558 542 1047 1795 1820 1862 1870 1791 1626 1426 1328
799 677 484 495 372 339 449 562 527 519 522 429 743 956 806 726 712 721 878 1024 1004 1169 977 1352 2339 2531 2473 2411 2056 1931 1576 862 356 117 159 655 323 182 235 719 518 1102 1612 1753 1533 1759 1435 1425 1346
338 222 323 297 555 292 542 428 431 271 318 279 337 1158 840 760 808 892 793 946 1019 1026 1024 1222 1193 1866 1840 2090 1617 1551 1382 873 398 154 299 226 133 136 112 722 581 761 1190 1560 1381 1701 1683 1577 1491
280 154 104 127 111 267 217 1 211 208 368 525 415 1034 1035 795 764 851 857 727 959 790 866 1198 1228 1256 1517 1598 1612 1482 1468 984 427 382 326 150 126 88 110 267 558 678 1004 1301 1597 1487 1448 1597 1645
146 67 151 99 103 232 216 87 216 583 532 727 830 1090 986 711 729 785 819 907 932 1076 988 975 1017 1086 803 1009 1738 2078 1638 1343 745 437 517 149 27 132 79 83 360 619 942 1148 1401 1447 1841 1785 1761
59 26 25 72 103 103 165 137 341 789 542 818 1251 1118 940 633 760 748 772 909 858 984 851 924 908 963 880 1032 1912 2132 1956 1363 1766 932 838 334 37 0 8 41 175 384 783 1270 1191 1164 1685 2251 1748
24 23 22 14 25 39 169 362 375 493 268 548 1264 1373 855 702 711 668 624 750 852 989 928 874 1320 1349 996 1364 2235 2499 2261 1732 1541 1005 757 1196 1399 54 46 33 20 77 363 578 928 822 775 1438 2054
17 0 4 3 0 39 75 97 223 280 476 634 1074 1429 933 819 700 573 536 516 674 924 1032 1030 1164 1539 1790 1358 1676 1559 2370 2057 871 1515 909 1386 1307 1395 447 107 64 81 350 1036 622 933 1441 1467 2238
15 0 0 0 0 15 45 127 111 283 640 757 1275 1381 1062 863 626 581 586 699 715 1008 1113 1302 1435 1854 1722 3151 1664 1611 1770 1280 1151 1743 1463 959 656 1700 1344 638 542 441 1069 1007 290 427 917 1864 1657
0 0 1 0 0 5 9 32 173 240 466 951 1361 1367 1140 920 684 653 695 850 907 1098 1211 1276 1489 1954 1981 2022 2419 2446 1799 1741 1371 1111 2273 1674 1814 1507 2046 2378 1380 1348 1168 954 1143 487 1650 1469 767
0 3 11 1 0 2 0 50 72 320 513 968 1254 1410 1272 1139 981 816 828 973 1070 1147 1245 1486 1681 2116 2385 2898 2213 2374 2491 1442 1579 1744 1093 1585 1886 1609 1152 2048 2690 1357 1307 942 692 1482 1188 763 554
1 2 54 0 0 3 0 52 66 304 464 737 1068 1350 1351 1357 1212 1248 1126 1200 1262 1259 1414 1700 1668 1954 2190 2601 2303 2690 2392 1607 1975 1582 1305 1173 1444 1546 1941 1927 951 938 1914 487 958 760 461 420 742
0 46 0 2 0 0 0 7 60 0 175 350 851 1231 1323 1356 1457 1437 1446 1496 1556 1613 1702 1885 1895 1776 2538 3114 2962 2148 2361 1897 763 732 753 1193 1664 1581 1833 1368 2610 1883 1778 1595 1065 559 891 1034 1075
2 36 0 0 0 0 0 0 0 4 19 157 453 923 1279 1284 1431 1576 1509 1652 1607 1824 2154 2420 2364 2453 1676 1978 3350 2712 2829 2177 713 464 460 641 1367 1360 1316 2124 2592 1465 2010 1799 1989 2200 1707 1262 1362
0 0 0 0 0 0 0 0 0 0 0 0 139 606 1025 1291 1316 1604 1473 1567 1724 1871 2299 2687 2834 1523 0 439 2179 3271 2401 2715 1230 1132 1256 852 1233 1472 967 493 1889 1862 2547 1332 1291 1176 2170 1773 2021
0 0 0 0 0 0 0 0 0 0 0 0 20 483 733 1087 1364 1566 1652 1159 1644 2016 2437 3022 3006 2008 1040 1231 2466 2524 2270 1902 1668 2319 1467 1390 1440 858 642 224 669 1996 2457 2339 1848 2029 2216 2891 2239
0 0 0 0 0 0 0 7 0 10 95 106 67 414 517 940 1403 1720 1726 1448 1449 2014 2349 2855 3630 3646 2709 2791 2951 3160 2948 2846 2048 1964 1713 1804 1429 749 876 736 785 1155 1642 1400 2082 2125 1147 2405 1708
5 0 0 0 0 36 0 40 12 42 148 95 136 287 400 664 1134 1604 1743 1791 1654 1655 1773 2506 3179 3761 3676 3711 3418 3940 2698 2242 2723 1804 2374 2025 1790 1920 2006 1124 1155 1203 1100 897 2401 1953 1782 2521 2378
0 0 0 0 0 9 22 107 75 58 375 406 441 376 227 478 896 1221 1446 1886 2032 1640 1226 2097 3089 3661 4089 3646 3922 3865 3228 2086 2005 1807 2033 2697 2193 2085 1929 2062 2426 2892 1300 1059 1043 1598 2596 2542 1626
0 0 0 0 0 29 40 18 103 105 303 349 520 661 813 645 494 1106 1311 1388 2083 1904 1375 1564 2897 3407 3608 3479 3653 3892 3541 3009 1989 2094 2183 1847 1696 2016 2490 1998 2303 1610 1941 2646 2535 2674 2220 2132 1680
0 0 6 107 78 68 29 0 179 224 326 442 647 834 976 918 727 828 1345 1369 2010 2243 2080 1991 2602 3212 3567 3475 3643 3888 4162 3481 3109 2696 2091 2089 1782 1631 2576 3308 3020 2326 3013 2468 3195 3199 2732 2291 1728
21 6 18 186 121 64 37 115 266 182 236 532 780 1241 1277 1431 1533 1476 1564 1634 1954 2337 2523 2539 3129 3558 3351 3382 3750 4529 4004 3981 3343 3126 2384 1874 1344 1150 3048 2832 2409 2565 2337 2323 2213 1683 2260 2392 1777
29 6 16 5 55 23 112 77 34 71 131 520 794 1453 1567 1773 2050 2246 2325 2265 2345 2485 2672 2874 2983 3243 3766 3348 3668 3834 4162 3866 3890 4412 3680 2585 2564 1690 2317 2065 2162 2599 2485 2317 2897 1435 1444 2825 2485
0 3 44 125 209 308 130 144 432 338 83 483 613 1521 1719 1730 2321 2231 2128 2100 2367 2408 2631 2758 2762 3183 3092 3220 3093 2803 2948 3673 3735 3767 3454 3520 2810 2522 2533 2343 2050 2632 2588 2110 2506 2550 2369 2564 2699
0 0 13 47 56 159 219 102 116 110 267 323 440 1268 1612 2106 1642 1489 1377 1508 1791 1869 1760 1731 2083 2413 2628 2830 2595 1921 1828 2358 3129 3232 3634 3195 2930 3056 2850 3039 2534 2128 1987 2044 2363 1860 1642 2098 2571
0 3 12 141 110 206 112 186 215 180 102 280 320 748 1583 1830 1588 1289 1430 1475 1521 1451 1500 1546 1689 1678 2036 2307 3411 2879 3808 3393 2992 3149 3152 1999 674 2958 3459 2997 2672 2220 1544 1553 1345 1165 1644 1678 1832

GFSSGP_con_sbcape_240.txt.gz
CAPE
0 6 699 1488 223 454 713 480 406 391 309 76 39 269 350 524 416 648 315 483 828 454 1073 1479 2355 2317 2180 2348 2357 2050 1790 1754 1923 1990 2097 1829 1959 2121 2375 2622 2592 2777 2576 2054 1792 1800 1697 1663 1971
86 1014 1450 555 612 451 535 333 348 411 511 237 345 245 230 365 642 662 615 433 386 454 287 928 2348 2392 2396 2636 2538 2476 2081 1552 2115 1908 1846 1468 1366 1465 1723 1989 2086 2361 2361 2318 2153 2124 1755 1641 1746
1 784 1443 49 175 791 551 310 407 200 222 290 91 476 376 420 901 777 536 377 253 224 390 1311 3056 2479 2686 2833 2672 2663 2535 1861 2015 1985 1146 1231 1154 1013 1099 1394 1765 1902 1928 2005 2208 2493 2254 2365 1840
265 1541 415 302 305 387 367 267 460 326 177 364 564 465 381 417 725 811 555 506 302 243 607 2496 3136 2244 2807 2832 2644 2891 2738 1902 1790 1010 443 433 721 926 835 694 1125 1536 1769 1679 1595 1552 1737 2156 2232
293 849 329 894 239 244 65 303 359 280 255 561 518 412 496 654 594 858 652 532 818 1239 774 1452 2977 2671 2883 2710 2936 2370 2362 1712 1477 1017 732 646 230 198 563 853 598 965 1511 1743 1778 1608 1366 1225 1385
272 229 204 514 437 289 197 351 297 526 377 443 463 458 620 625 771 1015 795 710 1044 1297 624 803 2511 3005 2905 2682 2392 2528 2178 1625 1011 585 705 548 241 60 122 755 619 573 1067 1363 1391 1520 1268 1315 1227
380 602 495 213 128 211 31 70 101 292 544 310 674 727 596 522 599 1037 836 978 1065 1091 1214 1481 1119 1814 2171 2863 2405 2122 1931 1167 579 270 626 387 168 109 15 173 821 510 618 1121 1280 1627 1585 1441 1427
264 282 190 62 271 0 1 30 19 145 216 314 893 863 817 571 506 943 959 1025 1207 909 1014 1492 1864 1782 1779 1667 2120 1746 1523 1084 447 128 420 236 40 0 4 42 366 711 744 1076 1510 1529 1444 1448 1610
100 111 134 139 123 146 63 50 411 440 536 488 1061 993 663 590 657 617 992 977 1195 1219 1080 1015 1038 1766 1743 1719 1628 1870 1579 1241 699 309 521 247 93 0 27 33 178 490 618 1119 1424 1668 1643 1896 1921
1 4 41 87 43 35 19 304 1 187 770 780 938 869 752 618 646 609 676 892 875 1118 994 985 880 1007 1221 1202 2092 2009 1930 939 998 413 860 258 28 19 0 15 125 380 556 1005 1504 1675 1596 1612 1632
5 17 10 2 7 47 259 262 36 108 338 861 925 890 776 700 676 717 814 891 1047 1059 1142 832 1681 1270 792 1756 1576 2023 1268 353 555 602 676 767 475 0 1 55 40 181 240 380 1090 1344 1115 895 411
0 0 9 7 0 34 20 91 32 126 399 634 964 927 737 744 717 659 784 745 918 1091 1061 809 1838 2208 1846 1462 1637 1776 1178 641 730 533 736 446 339 350 96 99 127 124 137 395 752 820 698 464 1188
4 0 1 0 0 26 5 47 137 330 430 765 1104 923 777 727 643 624 577 603 852 904 950 952 1947 2753 2205 1690 1833 1630 873 985 836 601 486 681 596 309 193 531 323 142 131 606 264 1098 1439 1663 1582
0 0 4 3 0 0 4 21 91 34 442 886 1189 994 899 789 671 618 551 704 807 1068 990 1226 1819 2656 2699 2345 2155 1554 255 23 1043 1032 821 491 790 529 236 284 828 1127 1583 1291 1332 844 1700 1605 1590
0 0 18 0 0 2 0 25 149 59 318 776 1189 1159 1031 891 685 670 580 871 897 1133 1009 1662 1484 2182 2652 3471 3452 2577 1169 1186 1119 963 840 723 748 535 775 505 484 1051 1256 1171 843 679 1734 1881 1184
0 2 34 2 0 0 0 11 80 142 285 696 942 1114 1175 1117 837 755 699 772 1155 1185 1520 1622 1247 1792 2389 3238 2996 3230 1951 1945 1430 1537 670 1019 682 816 1396 876 860 1262 1658 1639 797 1218 1129 1192 726
16 23 1 2 0 0 0 1 78 2 97 482 677 1029 1165 1297 1198 1083 887 951 1126 1539 1602 1764 2108 1730 2504 2932 2628 2809 2094 2265 1678 1268 1170 1335 810 751 1686 1676 1350 1951 1490 1032 1064 924 1149 1105 1105
40 6 0 0 0 0 0 0 0 2 13 28 609 1151 1150 1248 1402 1484 1297 1244 1375 1639 2161 2404 2522 3143 3339 3413 2951 2724 1757 805 718 1189 755 1077 1422 960 426 1002 1793 1761 1536 1308 1514 1190 1894 1960 1256
0 0 0 0 0 0 0 0 0 0 0 19 30 640 1067 1090 1238 1561 1417 1538 1580 1872 2466 2777 3265 3251 1989 2424 2629 2583 1723 1705 1583 1106 922 567 641 1562 946 960 1383 1153 1774 1293 1525 1460 1059 1457 1485
0 0 0 0 0 0 0 0 0 0 0 0 0 309 717 1008 1195 1733 1616 1570 1570 2229 2892 3456 4019 3502 1368 923 2114 3492 3284 2234 2022 1689 1496 1390 1003 1803 989 380 252 1093 1706 1714 561 952 572 1182 1615
1 7 0 0 0 0 0 1 0 0 0 0 0 87 347 715 1049 1358 1675 1582 1297 2489 3219 3762 4202 3548 1905 1754 1877 3260 2473 2055 2790 2430 2090 1708 1888 1083 468 473 167 483 1312 520 737 821 979 1020 1346
6 0 0 0 0 0 0 58 126 40 57 22 56 139 218 469 550 1285 1511 1473 972 2108 2595 3964 4350 4176 3249 3015 3268 3728 2794 2031 1991 2465 2192 2499 1981 955 674 816 372 266 873 589 369 1183 780 670 1049
0 0 0 0 0 0 0 159 364 173 12 168 206 120 230 222 334 70 1154 1726 1485 1831 1863 2743 4311 4703 4452 4010 3970 3875 3123 2689 2636 2214 2634 2771 2266 1977 969 662 621 759 1253 1336 616 1482 1936 1808 1484
0 0 0 0 0 0 28 119 184 31 7 201 371 336 372 242 321 35 15 1971 1934 1841 1560 2190 3972 4691 4690 4624 4479 4355 3805 3299 2712 2703 2922 2477 2010 1618 1999 1649 1309 1292 1459 1518 1011 775 668 1007 1663
0 0 0 42 98 17 8 81 114 3 0 147 326 663 552 471 213 355 1073 1130 2360 1705 1785 2391 3634 4326 4550 4616 4520 4428 4562 3450 3137 3327 2697 2352 2169 1838 2349 2190 2187 1974 1288 1655 1777 1650 1639 1393 1505
0 0 10 127 138 130 110 184 193 159 1 399 841 882 893 1040 1224 1362 1399 1407 2023 2224 1700 1900 3841 4373 4469 4290 4414 4819 4741 3991 3688 3597 2772 2160 1896 1901 2356 2286 2271 2657 2277 2222 2265 1996 1121 1633 1766
0 3 0 19 49 122 152 267 59 63 238 212 1238 1155 1468 2135 2356 2275 2247 2092 2076 2142 2940 3266 3611 3981 4328 4193 4506 4614 4616 4714 3999 3172 2838 1505 3698 2960 1682 2338 2507 2269 2541 2076 2112 2141 1725 1343 1768
0 0 81 105 329 325 87 192 0 348 74 191 256 1104 1848 1915 1468 2221 2340 2440 2420 2292 2474 3198 3310 4355 3919 4281 4370 4071 4315 4532 4461 4253 3888 3395 3856 3908 3869 3146 2380 2568 2153 2226 1682 1064 1931 1290 683
0 0 1 29 44 152 17 45 224 315 179 160 716 987 1705 1831 1752 1482 1435 1676 2069 1812 2059 2029 2527 3347 3843 3484 3824 4321 3581 3559 4126 4195 4605 3981 3630 3789 4061 3525 2751 2312 2602 2426 1707 1240 972 1404 1214
110 119 74 179 287 122 213 145 252 99 26 113 98 587 1458 1263 1427 1067 1135 1182 1149 1639 2138 1985 2219 2293 2598 3348 4021 3780 3210 3091 3508 3841 3715 3821 3784 1830 2781 3505 2732 2602 2419 2007 1132 1386 1670 1141 967

GFSSGP_con_sbcape_246.txt.gz
CAPE
1585 1015 803 707 43 188 237 503 363 111 212 317 377 437 232 290 370 107 315 645 862 1044 1067 1489 2347 2450 2134 2244 2451 2455 2494 2348 2845 2892 3126 2762 2390 2750 2987 2133 1697 1902 1800 1719 1616 1331 1749 2277 2782
128 117 43 47 38 98 254 66 238 284 277 367 505 397 319 275 494 480 782 820 1077 1113 1365 1422 2248 2445 2296 2345 2641 2581 2307 2113 2313 2842 2865 2815 2488 2382 2439 2553 2484 2116 1772 1629 1645 1674 2528 3025 2514
198 204 15 42 77 166 67 5 409 392 413 334 410 607 371 398 578 502 713 1013 1031 1233 1160 1392 2417 2422 2356 2352 2572 2809 2840 2518 2410 2506 2270 2141 1804 1834 2039 1848 2164 2413 2524 2419 2246 1413 1556 1999 2471
159 368 560 61 133 346 276 322 263 337 232 337 496 553 455 442 423 506 792 846 1004 1191 1080 2074 2536 1907 2218 2552 2776 2543 2353 2404 2262 2123 1870 1775 1719 1632 1600 1733 1873 1662 1716 1913 2195 2408 2512 2369 2074
211 373 226 384 331 338 225 642 456 284 407 522 646 761 583 378 405 481 676 638 806 1031 1333 1504 2455 2718 2629 2711 2467 2471 2074 2052 2030 1950 1763 1526 1346 1269 1253 1256 1282 1385 1700 1780 1586 1444 1445 1759 1918
276 350 179 90 69 309 407 283 418 407 408 790 849 594 381 334 316 388 241 378 1175 1361 1428 1556 2297 2719 2814 2520 2154 2194 1791 1483 1441 1571 1479 1493 1525 1430 1089 1012 1019 1304 1319 1562 1549 1470 1384 1517 1400
346 389 210 68 63 198 453 308 331 473 459 581 665 586 334 207 260 205 329 648 1204 1811 1496 1360 1604 1665 2324 2741 2018 1804 1786 1230 1001 956 746 817 845 871 1190 1211 976 677 713 941 1392 1569 1649 1619 1533
259 234 181 132 45 525 562 387 418 613 677 665 648 607 416 303 505 437 552 709 1002 1624 1645 1279 1304 1314 1733 1910 2266 1862 1848 1456 1069 995 677 309 192 220 174 537 664 739 721 863 1314 1767 1850 1636 1652
9 20 40 88 248 169 97 84 6 121 721 712 733 673 477 339 600 853 503 271 723 1015 1500 1323 1190 1314 1639 1701 1534 2180 1921 1443 903 925 870 502 42 4 50 96 568 601 563 704 1078 1502 1920 1896 1828
1 3 45 35 65 174 221 24 10 319 917 648 470 714 608 438 525 762 646 458 516 685 949 1371 1305 1474 1427 1724 1522 1314 1190 920 608 336 101 133 16 0 0 17 28 250 745 713 927 1267 1667 1859 743
0 7 2 115 72 338 112 82 57 310 619 557 587 930 751 596 616 712 906 835 877 840 823 1013 1306 1309 1279 1391 1084 1035 894 715 487 344 175 85 16 0 0 0 0 0 117 98 194 184 565 1101 316
0 0 0 46 510 363 233 127 120 188 357 651 542 905 760 684 856 884 944 913 865 1043 1072 1079 1167 1126 1065 1063 1129 951 716 126 34 1 186 187 63 0 0 0 0 0 0 3 6 38 66 484 462
0 0 0 0 146 176 268 197 1 309 869 628 503 778 870 809 874 927 891 840 752 732 877 1071 1183 1035 992 1102 592 108 433 107 0 8 112 177 93 41 0 0 0 0 0 0 0 0 89 313 331
0 0 0 0 0 52 273 248 134 535 797 698 643 505 551 787 816 866 794 750 761 669 696 761 731 627 864 1061 593 235 467 165 33 52 133 184 125 89 24 2 0 12 4 0 0 0 42 232 298
0 0 0 0 0 70 122 122 250 861 789 780 746 644 569 477 465 799 697 732 601 562 511 608 560 556 819 818 708 618 540 313 99 128 142 168 170 130 136 35 8 23 24 82 78 86 183 264 311
0 0 0 0 0 1 0 0 356 866 807 760 730 716 664 492 210 513 357 574 419 351 692 749 853 661 583 776 494 328 68 47 12 102 161 163 152 214 231 79 54 62 51 68 154 173 165 215 140
0 0 0 19 0 0 0 0 57 843 818 716 738 740 703 512 285 142 200 402 281 271 626 809 772 587 523 636 537 372 24 0 0 0 110 135 242 240 161 190 185 145 122 88 117 211 177 137 98
0 0 0 9 0 0 0 0 0 756 890 824 757 729 722 530 428 220 181 331 334 318 650 850 1000 838 618 985 760 478 467 289 176 124 94 89 151 265 253 221 255 142 263 193 199 250 248 339 496
0 0 0 0 0 0 0 0 0 16 582 920 844 811 725 582 392 278 281 341 464 446 521 742 899 778 1199 1171 845 741 793 610 544 373 105 24 119 167 174 58 101 230 305 336 331 261 281 244 364
0 0 0 0 0 0 0 0 0 0 0 610 764 831 792 687 487 390 331 423 480 575 694 713 776 1029 1300 1331 969 934 748 586 382 294 217 117 149 237 138 21 23 220 361 255 395 357 216 216 288
0 0 0 0 0 0 0 0 41 0 16 1 597 811 841 725 580 681 772 794 705 720 1102 901 972 1326 1366 1288 1141 1428 1029 989 705 252 174 151 108 228 167 45 40 98 155 235 160 164 114 86 238
0 0 0 0 0 0 0 0 15 1 21 0 30 569 1267 827 851 1041 1093 727 708 1033 1241 1557 1223 1163 984 788 923 1392 1267 1023 961 984 625 353 147 59 299 206 87 70 23 113 135 162 134 144 124
0 0 0 0 0 0 0 0 0 0 0 2 980 1144 607 766 977 19 50 76 317 820 1630 2010 1070 653 568 535 512 550 1393 1036 849 796 907 632 476 243 161 315 83 44 40 52 112 108 223 250 147
0 0 0 0 0 0 14 0 0 0 0 1 165 974 586 511 271 0 12 320 36 259 2126 2556 1439 810 496 373 462 668 1129 1449 1069 782 881 903 967 715 570 277 146 62 13 18 71 110 66 212 268
0 0 0 0 0 0 0 0 2 0 0 0 7 50 563 252 419 150 111 108 61 23 151 2758 2188 1641 1270 775 795 1119 1698 1578 1465 1200 710 853 1102 963 713 358 179 145 103 118 169 250 159 186 334
0 0 0 0 0 6 0 0 8 24 110 264 35 29 228 59 62 52 59 28 211 258 554 640 2659 2380 2288 2145 2145 1677 2204 2138 1720 1426 1236 935 1072 1124 908 634 433 359 239 186 241 344 337 205 142
0 0 0 0 0 0 0 0 9 21 0 0 117 1013 1190 660 131 801 1521 1169 263 522 7 130 912 730 2171 2585 2302 2474 2385 2421 2309 1882 1442 1265 1013 1045 699 762 117 0 2 522 551 583 655 741 625
0 0 0 0 46 47 12 1 67 36 14 349 6 4 133 142 973 1056 1167 1385 1375 1009 688 1184 1348 344 8 2 1251 2363 2713 2544 2682 2153 1735 1404 716 112 242 139 94 128 168 386 945 683 584 608 703
0 0 0 0 2 18 6 0 10 5 0 345 0 22 43 11 728 856 795 917 1150 967 1036 1082 1291 925 81 520 1678 2415 2660 2688 2662 2543 2316 1718 1124 133 82 494 45 7 136 813 1051 568 609 682 613
0 0 0 1 3 0 0 7 0 0 0 0 198 629 383 0 508 445 1 776 897 946 746 773 637 822 1036 1133 1423 1318 2275 2612 2725 2424 2170 1978 1633 964 757 379 105 23 404 712 862 754 709 610 478